Weather in Andreyevka

Russia / Perm Krai     57°31′02″N   55°16′03″E
temp.,
°C
wind,
m/s
gust,
m/s
humid.,
%
clouds,
%
prec.,
mm/h
press.,
hPa
HPBL,
m
25 february, thu
thu2523:00−26n36975 0.0 1032141
02:00−28n22980 0.0 103121
05:00−29nw11980 0.0 103219
08:00−29w119923 0.0 103119
11:00−23ssw129211 0.0 1031206
14:00−19ssw238564 0.0 1030390
17:00−18ssw258749 0.0 1028471
20:00−23sse239753 0.0 102862
26 february, fri
fri2623:00−27sse239827 0.0 102735
02:00−28sse23980 0.0 102641
05:00−28se23976 0.0 102672
08:00−29se23965 0.0 102572
11:00−24sse379528 0.0 1025271
14:00−19sse4792100 0.0 1023410
17:00−16sse4890100 0.0 1022553
20:00−19sse31098100 0.0 1019260
27 february, sat
sat2723:00−20sse3129694 0.0 1018347
02:00−19se4129745 0.0 1015358
05:00−18se4129372 0.0 1012432
08:00−17ese51287100 0.0 1009474
11:00−16ese51089100 0.0 1008393
14:00−13ese5993100 0.6 1006526
17:00−12e5992100 1.1 1006602
20:00−14e41092100 0.3 1006494
28 february, sun
sun2823:00−16e41092100 0.3 1007430
02:00−18ene499496 0.1 1006377
05:00−17ene499395 0.2 1007376
08:00−17ne489496 0.1 1007387
11:00−16ne479299 0.3 1008422
14:00−14ne4790100 0.1 1009490
17:00−13ne4792100 0.3 1010512
20:00−15nne4894100 0.3 1011410
1 march, mon
mon123:00−16ne479598 0.4 1013338
02:00−18nne479598 0.2 1014303
05:00−19nne379692 0.3 1016248
08:00−22nne389755 0.0 1017173
11:00−18nne379235 0.0 1018272
14:00−13n35870 0.0 1018382
17:00−12nnw248833 0.0 1018412
20:00−17w119530 0.0 101720